TITAN 3C TRANSTAGE R/B, 2222

Orbit data source: Space-Track

TITAN 3C TRANSTAGE R/B, 2222 is space debris in GEO originally from a launch on Thu, 16 Jun 1966 UTC launched from the Air Force Eastern Test Range (AFETR). Debris objects in space refer to the collection of defunct objects orbiting the Earth. Examples of debris include non-operational satellites, rocket bodies, and fragments generated from explosions, collisions, or faulty payload assembly.

Loading next visibility...
Identifier
2222, 1966-053J
Orbit
GEO
Country
Flag of USUS
Related business
Manufacturer
Martin Marietta
Mission
Spacecraft
Bus & Motor
TRANSTAGE, Unknown motor
Mass
2,050 kg wet, 2,050 kg dry
Launch date (UTC)
1966-06-16 (60 years ago)
Launch vehicle
Unknown
Launch site
Air Force Eastern Test Range (AFETR)
Object type
Payload
Rocket body
Debris
Shape & HBR
Unknown
Radar Cross Section
Large (>1 m²)

Expand to show TLE details & history
Last TLE update: 10 hours ago

TLE from 10 hours ago
0 TITAN 3C TRANSTAGE R/B
1 02222U 66053J   25348.81497008 -.00000130  00000-0  00000-0 0  9992
2 02222   8.0472  49.6753 0164644 165.8547  11.6162  1.06721604128416
Epoch: 2025-12-14T19:33Z
TLE epoch observation values (Epoch: 2025-12-14T19:33:33.414Z)
Latitude
0.28665°
Longitude
-149.56461°
Altitude
33,416.906 km
Speed
3.19 km/s
True Right ascension
15h 10m 11s
True Declination
0° 17' 11"
Sunlit
Object was in daylight at epoch
Visualization orbit readout
Latitude
Unknown
Longitude
Unknown
Altitude
Unknown
Speed
Unknown
Apparent Right ascension
Unknown
Apparent Declination
Unknown
Sunlit
N/A
Visualization observer readout
Local Sidereal Time
03:44:41
Azimuth
Unknown
Elevation
Unknown
Doppler factor
Unknown
Orbital elements
Apogee altitude
34,737.22 km
Perigee altitude
33,405.271 km
Semi-major axis
40,449.383 km
Eccentricity
0.01646
Inclination
8.0472°
RAAN
49.6753°
Arg. of periapsis
165.8547°
True anomaly
12.0039°
Mean anomaly
11.6162°
Eccentric anomaly
11.80926°
Mean motion
0.26679 °/min
Orbital period
1,349.36 mins
BSTAR
0
Loading maneuver chart data...
Computing Atmospheric mass density...
Loading historical data...
Loading historical data...
Loading historical data...
Loading historical data...
Loading historical data...
Loading historical data...
Loading historical data...

Documentation

Showing up to 5 results
|